EZY79PL EGPH-EGSS

Flight info

Callsign EZY79PL
Flight time N/A
Altitude 33000
Route GOSAM P600 FENIK L612 NAVSO DCT AKOMU DCT VAMEB UL612 LISTO
Aircraft A20N/M-SDE2E3FGHIRWXY/LB1

Departure

Time 2026-04-26 10:32
Airport Edinburgh Airport (EGPH)

Arrival

Time N/A
Airport London Stansted Airport (EGSS)
Time Latitude Longitude Altitude Speed Heading
2026-04-26 10:13 55.95017 -3.36019 105 ft 0 kts 244°
2026-04-26 10:20 55.95020 -3.36006 105 ft 2 kts 246°
2026-04-26 10:20 55.95027 -3.35981 105 ft 2 kts 244°
2026-04-26 10:21 55.95034 -3.35957 106 ft 2 kts 244°
2026-04-26 10:21 55.95040 -3.35934 106 ft 2 kts 244°
2026-04-26 10:21 55.95047 -3.35910 106 ft 2 kts 244°
2026-04-26 10:21 55.95052 -3.35885 106 ft 2 kts 266°
2026-04-26 10:22 55.95051 -3.35858 106 ft 2 kts 288°
2026-04-26 10:22 55.95048 -3.35844 106 ft 1 kts 301°
2026-04-26 10:22 55.95045 -3.35837 106 ft 0 kts 299°
2026-04-26 10:26 55.95047 -3.35842 106 ft 1 kts 299°
2026-04-26 10:26 55.95055 -3.35868 106 ft 3 kts 299°
2026-04-26 10:26 55.95070 -3.35916 106 ft 5 kts 298°
2026-04-26 10:26 55.95092 -3.35996 105 ft 8 kts 292°
2026-04-26 10:27 55.95113 -3.36108 105 ft 10 kts 288°
2026-04-26 10:27 55.95154 -3.36175 104 ft 8 kts 11°
2026-04-26 10:27 55.95198 -3.36091 104 ft 10 kts 59°
2026-04-26 10:27 55.95237 -3.35976 104 ft 11 kts 59°
2026-04-26 10:28 55.95280 -3.35849 104 ft 12 kts 59°
2026-04-26 10:28 55.95327 -3.35710 104 ft 13 kts 59°
2026-04-26 10:28 55.95377 -3.35562 104 ft 12 kts 59°
2026-04-26 10:28 55.95415 -3.35453 104 ft 8 kts 59°
2026-04-26 10:29 55.95447 -3.35404 104 ft 6 kts
2026-04-26 10:29 55.95486 -3.35430 104 ft 4 kts 330°
2026-04-26 10:29 55.95491 -3.35435 104 ft 0 kts 329°
2026-04-26 10:30 55.95502 -3.35446 103 ft 3 kts 329°
2026-04-26 10:31 55.95528 -3.35475 103 ft 5 kts 329°
2026-04-26 10:31 55.95568 -3.35518 103 ft 4 kts 325°
2026-04-26 10:31 55.95565 -3.35576 103 ft 5 kts 239°
2026-04-26 10:31 55.95562 -3.35584 103 ft 0 kts 239°
2026-04-26 10:32 55.95525 -3.35695 103 ft 41 kts 239°
2026-04-26 10:32 55.95238 -3.36539 104 ft 116 kts 239°
2026-04-26 10:32 55.94706 -3.38107 161 ft 169 kts 239°
2026-04-26 10:32 55.94104 -3.39866 868 ft 167 kts 238°
2026-04-26 10:33 55.93510 -3.41595 1673 ft 166 kts 238°
2026-04-26 10:33 55.92910 -3.43335 2379 ft 171 kts 238°
2026-04-26 10:33 55.92263 -3.45197 2899 ft 185 kts 237°
2026-04-26 10:33 55.91564 -3.47196 3377 ft 202 kts 237°
2026-04-26 10:34 55.90797 -3.49448 3857 ft 223 kts 242°
2026-04-26 10:34 55.90245 -3.52103 4442 ft 240 kts 257°
2026-04-26 10:34 55.90009 -3.55151 5106 ft 255 kts 263°
2026-04-26 10:34 55.89763 -3.58285 5717 ft 261 kts 259°
2026-04-26 10:35 55.89434 -3.61481 6569 ft 266 kts 259°
2026-04-26 10:35 55.89098 -3.64673 7553 ft 266 kts 259°
2026-04-26 10:35 55.88762 -3.67923 8479 ft 269 kts 258°
2026-04-26 10:35 55.88430 -3.71171 9407 ft 271 kts 258°
2026-04-26 10:36 55.88093 -3.74485 10310 ft 274 kts 258°
2026-04-26 10:36 55.87755 -3.77798 11021 ft 282 kts 258°
2026-04-26 10:36 55.87563 -3.81415 11481 ft 303 kts 270°
2026-04-26 10:36 55.87707 -3.85209 11893 ft 321 kts 272°
2026-04-26 10:37 55.87889 -3.89255 12521 ft 331 kts 272°
2026-04-26 10:37 55.88065 -3.93305 13320 ft 334 kts 272°
2026-04-26 10:37 55.88174 -3.97396 14116 ft 336 kts 265°
2026-04-26 10:37 55.87609 -4.01400 14850 ft 338 kts 244°
2026-04-26 10:38 55.86344 -4.04738 15595 ft 341 kts 230°